Temperature
7 7 6 6 6 6 5 5 5 5 5 5 5 5 5 4 4 4 4 4 4 4 4 4 4 4 4 4 4 4 4 3 3 4 4 4 4 5 5 5 5 5 5
7 6 6 6 5 5 5 5 5 5 4 4 4 4 4 4 4 4 3 3 3 3 3 3 3 3 3 3 3 3 3 3 3 3 3 4 4 4 4 4 4 4 5
6 6 6 5 5 5 5 4 4 4 4 4 4 3 3 3 3 3 3 3 3 3 2 2 2 2 2 2 2 2 2 2 2 2 3 3 3 3 3 3 4 4 4
6 6 5 5 5 5 4 4 4 4 3 3 3 3 3 3 2 2 2 2 2 2 2 2 2 2 2 2 2 2 2 2 2 2 2 2 2 2 2 3 3 3 4
5 5 5 5 4 4 4 4 3 3 3 3 3 2 2 2 2 2 2 2 1 1 1 1 1 1 1 1 1 1 1 1 1 1 1 1 2 1 2 2 2 3 3
5 5 5 4 4 4 4 3 3 3 3 3 2 2 2 2 2 1 1 1 1 1 1 1 1 1 1 1 1 1 1 1 0 1 1 1 1 1 1 1 1 1 2
5 4 4 4 4 3 3 3 3 3 3 2 2 2 2 2 1 1 1 1 1 1 1 1 1 1 1 0 0 0 0 -0 0 0 0 0 0 0 0 0 0 0 1
4 4 4 3 3 3 3 3 3 2 2 2 2 2 2 2 1 1 1 1 0 0 0 0 0 0 0 -0 -0 -0 -0 -0 -0 -0 -0 -0 -0 -0 -0 -0 -0 -0 0
4 3 3 3 3 3 2 2 2 2 2 2 2 1 1 1 1 1 0 0 0 0 -0 -0 -0 -0 -0 -0 -1 -0 -0 -0 -0 -1 -1 -1 -1 -1 -1 -1 -1 -1 -0
3 3 3 3 2 2 2 2 2 2 2 1 1 1 1 1 1 0 -0 -0 -0 -0 -0 -0 -0 -1 -1 -1 -1 -1 -1 -1 -1 -1 -1 -1 -1 -1 -1 -1 -1 -1 -1
2 2 2 2 2 2 2 2 2 1 1 1 1 1 1 1 0 -0 -0 -1 -1 -1 -1 -1 -1 -1 -1 -1 -1 -1 -1 -1 -1 -1 -1 -2 -2 -1 -1 -1 -2 -2 -2
2 2 2 2 2 2 1 1 1 1 1 1 1 1 1 0 -0 -0 -1 -1 -1 -1 -1 -1 -1 -1 -1 -1 -2 -2 -2 -2 -2 -2 -2 -2 -2 -2 -2 -2 -2 -2 -2
1 1 1 1 1 1 1 1 1 0 0 0 0 0 0 0 -0 -1 -1 -1 -1 -1 -1 -1 -2 -2 -2 -2 -2 -2 -2 -2 -2 -2 -2 -2 -2 -2 -2 -2 -2 -2 -2
1 1 1 1 1 1 1 0 0 0 0 0 -0 -0 -0 -0 -0 -1 -1 -1 -1 -2 -2 -2 -2 -2 -2 -2 -2 -2 -3 -3 -3 -3 -3 -3 -3 -3 -3 -3 -3 -3 -3
1 1 0 0 0 0 0 0 0 0 -0 -0 -1 -1 -1 -1 -1 -1 -1 -2 -2 -2 -2 -2 -2 -2 -2 -3 -3 -3 -3 -3 -3 -4 -4 -4 -4 -4 -4 -4 -4 -4 -4
1 0 0 0 -0 -0 -0 -0 -0 -0 -1 -1 -1 -1 -1 -1 -1 -1 -2 -2 -2 -2 -2 -2 -2 -3 -3 -3 -3 -3 -3 -4 -4 -4 -4 -4 -4 -4 -4 -4 -4 -4 -5
0 0 -0 -0 -0 -1 -1 -1 -0 -0 -1 -1 -1 -1 -2 -2 -2 -2 -2 -2 -2 -3 -3 -3 -3 -3 -3 -3 -4 -4 -4 -4 -4 -4 -4 -5 -5 -5 -5 -5 -5 -5 -5
-0 -0 -0 -1 -1 -1 -1 -1 -1 -1 -1 -1 -1 -1 -2 -2 -2 -2 -2 -3 -3 -3 -3 -3 -3 -3 -4 -4 -4 -4 -4 -4 -5 -5 -5 -5 -5 -5 -6 -6 -6 -6 -6
-0 -1 -1 -1 -1 -1 -1 -1 -1 -2 -1 -1 -2 -2 -2 -2 -2 -2 -3 -3 -3 -3 -3 -3 -4 -4 -4 -4 -4 -5 -5 -5 -5 -5 -5 -5 -5 -6 -6 -6 -6 -6 -6
-1 -1 -1 -1 -1 -1 -2 -2 -2 -2 -2 -2 -2 -2 -2 -3 -3 -3 -3 -3 -3 -3 -4 -4 -4 -4 -5 -5 -5 -5 -5 -5 -5 -6 -6 -6 -6 -6 -6 -6 -7 -7 -7
-1 -1 -2 -2 -2 -2 -2 -2 -2 -2 -2 -2 -2 -3 -3 -3 -3 -3 -3 -3 -4 -4 -4 -4 -5 -5 -5 -5 -5 -5 -6 -6 -6 -6 -6 -6 -6 -7 -7 -7 -7 -7 -7
-2 -2 -2 -2 -2 -2 -2 -2 -2 -3 -3 -3 -3 -3 -3 -3 -3 -3 -4 -4 -4 -4 -5 -5 -5 -5 -5 -6 -6 -6 -6 -6 -6 -6 -6 -6 -7 -7 -7 -7 -7 -7 -7
-2 -2 -2 -2 -2 -3 -3 -3 -3 -3 -3 -3 -3 -3 -4 -4 -4 -4 -4 -4 -5 -5 -5 -5 -5 -5 -6 -6 -6 -6 -6 -6 -6 -6 -7 -7 -7 -7 -7 -7 -8 -8 -8
-3 -3 -3 -3 -3 -3 -3 -3 -3 -3 -3 -4 -4 -4 -4 -4 -4 -4 -4 -5 -5 -5 -5 -5 -5 -6 -6 -6 -6 -6 -6 -6 -6 -7 -7 -7 -7 -7 -8 -8 -8 -8 -8
-3 -3 -3 -3 -3 -3 -3 -3 -4 -4 -4 -4 -4 -4 -4 -4 -4 -4 -5 -5 -5 -5 -5 -6 -6 -6 -6 -6 -6 -6 -7 -7 -7 -7 -7 -7 -7 -8 -8 -8 -8 -8 -9
-3 -3 -3 -3 -3 -4 -4 -4 -4 -4 -4 -4 -4 -5 -5 -5 -5 -5 -5 -5 -5 -6 -6 -6 -6 -6 -6 -6 -6 -7 -7 -7 -7 -7 -7 -7 -8 -8 -8 -8 -8 -9 -9
Wind_Speed
4 4 4 4 4 3 4 4 4 4 4 3 4 3 3 4 3 3 3 3 3 3 3 3 4 3 3 3 3 3 4 4 7 5 2 3 3 4 5 5 6 6 6
4 4 4 4 4 4 4 5 4 4 4 4 3 4 4 4 3 4 4 4 3 3 3 3 4 3 4 3 3 4 4 4 5 7 4 3 3 3 4 5 5 6 5
3 4 4 4 4 5 5 4 4 4 4 3 3 4 4 4 4 4 4 4 4 4 4 4 4 4 4 4 4 4 4 4 4 5 5 3 3 3 4 4 5 4 5
4 4 5 6 6 6 5 4 4 4 4 4 4 4 5 5 4 4 4 4 4 4 4 4 4 4 5 4 4 4 4 4 4 4 4 3 3 3 3 4 5 4 4
4 5 6 6 5 5 5 5 4 4 5 4 4 5 5 4 4 4 4 4 4 4 4 4 5 6 6 5 4 4 4 3 4 4 4 4 3 3 3 3 5 5 4
4 6 6 5 5 5 5 5 5 5 5 4 5 5 5 5 7 8 5 4 4 4 5 5 5 5 6 6 7 6 5 4 4 4 4 5 5 4 3 3 4 4 5
5 5 5 5 5 6 5 5 5 5 5 5 5 5 6 7 8 8 7 4 4 4 5 4 4 4 5 4 6 6 6 7 7 5 5 5 5 5 5 5 5 5 5
5 6 5 5 6 5 5 6 6 5 5 5 5 5 6 7 9 8 7 4 4 4 5 5 5 5 5 4 4 4 4 5 6 4 4 5 5 5 5 5 5 5 4
6 6 6 6 6 5 6 6 5 4 5 5 4 5 5 6 8 8 6 2 3 4 4 4 4 5 7 6 3 4 4 4 5 5 5 6 7 7 5 3 3 3 4
7 7 6 6 6 6 7 6 5 4 5 5 5 4 5 5 7 7 6 2 3 4 4 4 6 6 7 6 3 3 4 4 3 4 4 5 5 5 5 3 3 3 3
6 6 5 6 6 6 5 4 4 4 4 4 5 4 5 6 7 8 7 3 4 4 3 3 4 7 7 7 5 3 5 4 2 2 2 3 3 2 2 2 2 3 3
5 5 5 5 5 4 5 4 4 4 4 4 4 4 4 5 6 7 8 7 5 4 4 3 4 6 7 6 5 5 6 4 1 1 2 3 3 2 2 3 2 3 3
4 5 5 5 5 4 4 5 4 4 4 4 4 5 4 3 5 8 8 8 7 4 4 5 5 5 5 4 4 5 4 1 1 2 3 3 2 2 2 2 3 2 3
5 6 5 4 5 4 4 4 4 5 5 5 5 5 4 3 4 3 3 4 5 4 3 3 4 4 2 2 3 3 2 1 2 2 2 2 2 1 2 2 2 3 3
6 5 5 4 5 4 5 5 6 6 6 6 5 5 4 5 6 7 4 3 3 3 1 1 1 1 1 1 1 2 1 1 2 2 2 2 2 2 2 2 2 2 2
5 5 4 4 4 4 4 4 6 7 9 10 9 7 6 7 7 7 8 7 6 5 3 2 2 2 3 3 2 2 2 2 2 2 2 2 2 2 2 2 2 2 3
6 6 4 4 4 4 4 4 4 4 6 8 9 9 8 8 8 7 7 7 6 6 3 3 3 3 3 3 3 3 3 2 2 2 2 2 2 2 2 2 2 2 3
6 7 5 5 5 5 5 5 4 4 3 3 5 8 8 8 7 7 6 4 3 4 3 4 4 4 3 3 3 3 2 2 2 2 2 2 2 2 2 2 2 3 3
6 5 4 4 4 4 4 4 4 5 4 3 3 4 6 6 5 6 5 3 3 4 3 4 4 3 3 3 3 3 3 2 2 2 2 2 2 2 2 3 3 4 4
5 7 6 4 4 4 4 4 4 4 4 4 4 4 2 2 2 3 3 3 3 4 4 4 3 3 3 3 3 3 3 3 3 2 2 2 2 2 3 3 3 3 3
5 5 6 4 4 4 4 5 5 4 5 5 5 5 6 3 4 4 4 4 4 4 4 4 3 4 3 3 3 3 3 3 3 3 3 3 2 2 3 3 3 3 3
4 4 4 4 4 4 4 4 4 5 5 5 4 4 7 4 3 4 4 4 4 3 3 3 3 3 4 4 4 3 4 4 3 3 3 3 2 2 2 2 2 2 3
4 4 4 4 4 5 5 4 4 4 4 4 4 3 3 4 4 4 4 4 3 3 3 3 3 3 3 3 4 4 4 4 4 4 3 3 3 2 2 2 3 3 3
4 4 4 4 4 4 4 4 4 4 4 4 4 4 4 4 4 4 4 3 3 3 3 3 4 5 5 4 4 4 5 5 4 4 5 4 3 3 3 3 3 3 3
4 4 4 4 4 4 4 4 4 4 4 4 4 4 4 4 4 4 3 3 3 3 4 4 4 4 5 6 5 5 6 6 6 5 4 4 4 4 3 3 3 3 3
5 5 4 4 4 5 5 5 5 4 4 4 4 4 4 4 4 4 3 3 3 3 3 3 4 5 6 5 6 7 7 7 7 6 4 3 3 3 3 3 3 3 3
Wind_Direction
226 225 231 237 235 234 238 247 252 261 263 268 270 274 279 284 286 282 279 285 281 286 290 286 288 290 286 283 274 269 267 261 266 280 271 282 282 292 310 316 310 307 307
229 228 235 239 235 235 242 247 245 251 257 257 262 266 272 276 275 271 277 279 273 276 280 281 285 291 285 283 277 270 266 263 260 274 281 280 274 281 294 298 311 313 307
233 234 242 243 237 239 242 243 240 243 253 256 254 258 265 269 268 265 264 268 266 267 270 270 278 281 285 288 285 277 270 269 260 260 274 278 280 285 295 296 296 299 309
235 234 242 241 236 238 240 238 237 235 241 249 252 254 258 262 263 262 262 265 267 267 266 264 268 266 267 272 278 280 275 270 264 261 267 275 278 278 283 295 302 302 299
239 241 245 246 239 235 236 238 237 235 240 242 248 255 258 257 257 255 255 259 259 266 270 268 268 268 268 270 274 277 279 277 270 264 266 272 274 282 284 285 291 304 292
244 249 252 249 244 239 237 237 236 240 244 240 243 250 257 261 267 266 261 249 251 257 267 273 278 277 277 281 282 279 273 269 267 263 267 270 276 272 271 276 281 295 293
250 255 251 245 244 244 241 235 237 241 242 245 249 250 255 261 268 268 262 248 241 249 256 264 277 280 284 282 285 290 287 279 269 257 257 263 271 264 265 267 267 272 269
255 256 252 245 246 246 238 238 241 241 239 245 250 249 256 264 267 266 266 247 241 251 253 256 262 274 277 279 282 284 283 281 278 267 249 260 263 260 253 261 265 274 275
254 254 252 247 247 243 240 241 240 237 242 244 250 246 252 264 265 262 263 230 245 258 260 258 258 265 280 285 284 281 287 294 296 287 288 293 285 279 273 260 265 272 281
254 254 252 245 242 243 242 242 238 233 240 242 248 244 246 256 261 256 254 225 244 261 265 263 266 271 281 287 276 271 280 288 297 305 309 312 312 300 283 253 244 256 268
261 259 255 249 245 245 243 242 234 232 233 237 247 250 246 250 258 255 251 226 234 250 259 264 267 281 282 284 281 266 273 286 285 288 298 304 307 310 308 290 260 242 250
266 265 263 258 254 247 238 241 229 220 228 239 246 257 250 251 255 257 255 249 243 236 248 255 263 279 285 288 288 281 290 301 300 292 300 301 305 308 312 311 293 275 260
267 268 268 264 256 242 232 236 231 218 223 237 240 252 259 246 249 255 257 256 251 242 247 254 263 277 288 293 289 294 303 304 273 275 282 288 289 292 309 322 329 329 323
259 265 265 260 259 250 239 228 224 222 223 231 239 247 254 250 243 246 250 252 250 252 256 260 270 271 269 275 299 307 304 267 259 263 278 285 298 313 321 329 323 328 324
254 258 258 255 253 252 246 235 228 226 222 224 230 232 239 249 247 240 234 231 224 227 226 219 239 269 273 290 298 296 294 290 277 268 268 284 299 310 314 322 311 311 295
251 253 251 253 253 249 252 269 253 244 247 244 242 239 243 248 257 247 241 238 234 227 216 221 236 238 247 255 265 277 279 270 264 263 265 270 283 291 303 310 308 288 287
243 248 248 244 243 244 242 246 269 273 255 251 249 249 247 251 252 249 245 241 236 230 225 231 238 239 243 246 249 256 265 267 257 246 249 256 267 278 288 292 292 289 287
242 244 242 240 239 239 238 236 237 244 259 264 256 254 253 251 249 247 244 238 237 232 225 232 238 239 238 239 243 250 259 265 257 250 246 248 248 259 272 278 278 277 285
243 243 238 241 241 239 237 235 235 236 240 250 263 263 251 249 246 242 236 224 227 233 234 237 239 238 238 235 239 241 243 246 248 247 247 247 243 247 259 266 271 278 286
245 245 242 241 240 235 230 231 233 233 236 238 242 245 236 226 226 232 226 221 227 235 235 238 241 238 235 232 232 232 237 241 241 244 247 245 243 242 251 259 265 274 281
247 246 241 242 235 229 229 231 232 232 233 238 242 240 234 227 228 230 231 226 229 235 237 238 239 237 234 231 230 228 230 239 239 239 240 242 241 249 255 260 267 274 281
239 236 231 233 234 230 232 232 233 234 235 239 247 248 245 236 225 230 232 235 232 230 228 229 234 234 228 225 224 226 230 234 235 233 236 238 238 247 254 260 268 276 282
232 233 234 234 233 238 242 234 230 231 236 237 238 238 239 233 229 229 233 234 230 231 228 224 228 234 234 233 229 221 226 231 229 222 225 231 235 242 249 256 263 274 279
230 230 231 231 230 229 232 235 232 231 231 234 235 234 234 234 234 234 233 231 229 231 226 224 228 232 234 238 241 238 237 236 230 222 217 219 225 234 242 251 260 266 273
227 228 230 229 230 232 234 236 234 233 233 235 234 236 236 236 236 236 233 226 225 230 231 231 235 236 235 237 242 246 242 238 235 227 218 214 214 225 234 244 253 263 273
228 228 229 228 230 231 232 234 235 235 236 238 235 234 234 233 234 233 229 223 224 231 236 237 238 240 244 246 244 244 245 243 240 233 221 208 208 223 229 239 247 257 269
Height
1481 1480 1480 1479 1478 1477 1477 1476 1476 1475 1474 1473 1471 1470 1469 1468 1467 1466 1465 1464 1463 1463 1462 1462 1461 1461 1460 1460 1459 1459 1459 1458 1456 1454 1455 1456 1455 1455 1455 1455 1454 1454 1453
1477 1476 1475 1475 1474 1473 1472 1472 1471 1471 1470 1469 1468 1466 1465 1464 1463 1462 1461 1460 1459 1458 1458 1457 1457 1456 1456 1455 1455 1454 1454 1453 1452 1450 1450 1450 1451 1450 1450 1449 1448 1448 1448
1472 1472 1471 1470 1470 1469 1468 1468 1467 1466 1465 1464 1463 1462 1461 1460 1458 1457 1456 1456 1455 1454 1453 1453 1452 1452 1451 1450 1450 1449 1448 1448 1447 1446 1445 1445 1445 1445 1445 1444 1443 1443 1442
1468 1468 1467 1466 1465 1465 1464 1463 1463 1462 1461 1460 1459 1458 1457 1455 1454 1453 1452 1451 1451 1450 1449 1449 1448 1447 1447 1446 1445 1444 1444 1443 1443 1442 1441 1440 1440 1440 1440 1439 1438 1438 1437
1464 1463 1462 1462 1461 1460 1459 1459 1458 1457 1456 1455 1454 1453 1452 1451 1450 1449 1448 1447 1446 1445 1445 1444 1444 1443 1442 1442 1441 1440 1440 1439 1438 1437 1436 1436 1436 1435 1435 1434 1433 1432 1431
1459 1459 1458 1457 1456 1456 1455 1454 1453 1452 1451 1451 1449 1448 1447 1446 1445 1444 1444 1442 1442 1441 1440 1440 1439 1439 1438 1437 1437 1436 1436 1435 1434 1433 1432 1432 1431 1431 1431 1430 1429 1427 1425
1455 1454 1453 1452 1451 1451 1450 1449 1448 1447 1446 1445 1444 1443 1442 1441 1440 1439 1439 1438 1437 1436 1436 1435 1435 1434 1434 1433 1433 1432 1431 1431 1431 1430 1428 1427 1427 1426 1426 1425 1424 1423 1422
1450 1449 1448 1447 1446 1445 1444 1443 1443 1442 1441 1440 1439 1438 1436 1435 1435 1434 1434 1433 1433 1432 1432 1431 1431 1430 1430 1429 1428 1427 1427 1426 1425 1425 1424 1423 1422 1422 1421 1420 1419 1418 1417
1444 1443 1442 1442 1440 1439 1438 1438 1437 1436 1435 1434 1434 1433 1431 1430 1430 1429 1429 1429 1428 1428 1427 1427 1426 1426 1426 1425 1424 1423 1422 1421 1421 1420 1420 1418 1417 1417 1416 1416 1415 1413 1411
1439 1438 1437 1436 1435 1434 1433 1432 1431 1431 1430 1429 1428 1428 1427 1426 1425 1425 1425 1424 1424 1423 1423 1423 1422 1422 1422 1421 1420 1419 1418 1417 1416 1415 1415 1414 1413 1412 1411 1411 1410 1408 1407
1434 1433 1432 1431 1429 1428 1427 1427 1426 1426 1425 1424 1424 1423 1422 1422 1421 1421 1421 1420 1420 1419 1419 1419 1418 1418 1417 1417 1416 1415 1414 1413 1412 1411 1410 1409 1408 1407 1406 1406 1405 1404 1403
1429 1428 1426 1425 1424 1423 1422 1421 1421 1420 1420 1419 1419 1418 1418 1418 1418 1417 1417 1417 1416 1416 1415 1415 1414 1414 1414 1413 1412 1411 1410 1409 1408 1407 1406 1405 1404 1403 1402 1401 1401 1400 1399
1424 1422 1421 1420 1419 1418 1417 1416 1416 1415 1415 1414 1414 1414 1414 1414 1413 1413 1413 1412 1412 1412 1411 1411 1411 1410 1410 1409 1408 1407 1406 1405 1404 1403 1402 1401 1400 1399 1398 1397 1396 1396 1395
1419 1417 1416 1414 1413 1413 1412 1411 1411 1410 1410 1410 1409 1409 1409 1409 1409 1409 1408 1408 1408 1408 1407 1407 1407 1406 1406 1405 1404 1403 1402 1401 1400 1399 1398 1397 1396 1395 1394 1393 1392 1391 1390
1413 1412 1411 1409 1408 1407 1407 1407 1406 1406 1406 1405 1405 1405 1404 1404 1404 1404 1404 1404 1404 1404 1403 1403 1402 1402 1401 1401 1400 1399 1398 1397 1396 1395 1394 1393 1392 1391 1391 1390 1389 1387 1386
1408 1407 1406 1404 1404 1403 1402 1402 1401 1401 1401 1401 1400 1400 1399 1400 1400 1400 1400 1400 1400 1400 1399 1398 1398 1398 1397 1397 1396 1395 1394 1393 1392 1392 1391 1390 1389 1388 1387 1386 1385 1384 1382
1403 1401 1400 1399 1399 1398 1397 1397 1396 1397 1397 1396 1396 1396 1396 1395 1395 1395 1395 1395 1396 1395 1395 1394 1394 1394 1393 1393 1392 1391 1390 1390 1389 1388 1387 1386 1385 1384 1383 1382 1381 1380 1379
1397 1396 1395 1394 1394 1393 1393 1392 1392 1391 1391 1391 1392 1392 1391 1391 1391 1391 1391 1391 1391 1391 1390 1390 1390 1390 1389 1389 1388 1387 1387 1386 1385 1384 1383 1382 1381 1380 1379 1378 1377 1376 1375
1391 1390 1390 1389 1388 1388 1388 1387 1387 1387 1387 1387 1387 1387 1387 1387 1387 1387 1387 1386 1386 1386 1386 1386 1386 1385 1385 1385 1384 1383 1383 1382 1381 1380 1379 1378 1378 1377 1376 1375 1374 1373 1372
1385 1384 1384 1383 1383 1383 1382 1382 1382 1382 1382 1382 1382 1382 1382 1382 1382 1382 1382 1382 1382 1382 1382 1381 1381 1381 1381 1380 1380 1379 1378 1377 1377 1376 1375 1374 1374 1373 1372 1371 1370 1369 1368
1379 1379 1378 1378 1377 1377 1377 1377 1377 1377 1377 1377 1377 1378 1378 1377 1377 1377 1377 1377 1377 1377 1377 1377 1377 1376 1376 1376 1376 1375 1374 1373 1372 1372 1371 1370 1370 1369 1369 1368 1367 1366 1365
1373 1373 1373 1372 1372 1372 1372 1372 1372 1372 1372 1372 1372 1373 1373 1373 1373 1373 1373 1373 1373 1373 1373 1373 1372 1372 1372 1372 1371 1371 1370 1369 1369 1368 1367 1367 1366 1366 1365 1365 1364 1362 1361
1368 1368 1368 1367 1367 1367 1367 1367 1367 1367 1367 1367 1368 1368 1368 1368 1368 1368 1369 1369 1369 1369 1369 1368 1368 1368 1368 1367 1367 1367 1366 1365 1365 1365 1364 1363 1363 1362 1362 1361 1361 1359 1358
1363 1363 1363 1362 1362 1362 1362 1362 1362 1362 1362 1363 1363 1363 1363 1364 1364 1364 1364 1364 1364 1364 1364 1364 1364 1364 1363 1363 1363 1363 1362 1362 1362 1361 1361 1361 1360 1360 1359 1359 1358 1357 1356
1358 1358 1358 1357 1357 1357 1357 1358 1358 1358 1358 1358 1358 1359 1359 1359 1359 1359 1360 1360 1360 1360 1360 1360 1360 1360 1359 1359 1359 1359 1359 1359 1358 1358 1358 1358 1357 1357 1356 1356 1355 1354 1353
1353 1353 1353 1353 1353 1353 1353 1353 1353 1353 1353 1354 1354 1354 1354 1354 1355 1355 1355 1355 1356 1356 1356 1356 1356 1356 1356 1356 1355 1355 1355 1355 1355 1355 1355 1354 1354 1354 1353 1353 1352 1351 1350